Time,TemperatureF,DewpointF,PressureIn,WindDirection,WindDirectionDegrees,WindSpeedMPH,WindSpeedGustMPH,Humidity,HourlyPrecipIn,Conditions,Clouds,dailyrainin,SoftwareType,DateUTC
2013-07-02 00:03:00,65.6,55.2,30.05,East,89,0.0,4.0,69,0.00,,,0.00,Wunderground v.1.15,2013-07-02 05:03:00,
2013-07-02 00:09:00,65.5,55.1,30.05,East,89,0.0,4.0,69,0.00,,,0.00,Wunderground v.1.15,2013-07-02 05:09:00,
2013-07-02 00:15:00,65.4,55.0,30.05,East,89,0.0,4.0,69,0.00,,,0.00,Wunderground v.1.15,2013-07-02 05:15:00,
2013-07-02 00:21:00,65.2,55.2,30.05,East,89,0.0,4.0,70,0.00,,,0.00,Wunderground v.1.15,2013-07-02 05:21:00,
2013-07-02 00:27:00,65.1,55.1,30.05,East,89,0.0,4.0,70,0.00,,,0.00,Wunderground v.1.15,2013-07-02 05:27:00,
2013-07-02 00:33:00,65.0,55.0,30.05,East,89,0.0,4.0,70,0.00,,,0.00,Wunderground v.1.15,2013-07-02 05:33:00,
2013-07-02 00:38:00,65.0,55.0,30.05,East,89,0.0,4.0,70,0.00,,,0.00,Wunderground v.1.15,2013-07-02 05:38:00,
2013-07-02 00:44:00,64.9,54.9,30.05,East,89,0.0,4.0,70,0.00,,,0.00,Wunderground v.1.15,2013-07-02 05:44:00,
2013-07-02 00:50:00,64.8,55.2,30.05,East,88,0.0,4.0,71,0.00,,,0.00,Wunderground v.1.15,2013-07-02 05:50:00,
2013-07-02 00:56:00,64.8,55.2,30.05,East,89,0.0,4.0,71,0.00,,,0.00,Wunderground v.1.15,2013-07-02 05:56:00,
2013-07-02 01:01:00,64.7,55.1,30.05,East,89,0.0,4.0,71,0.00,,,0.00,Wunderground v.1.15,2013-07-02 06:01:00,
2013-07-02 01:07:00,64.6,55.0,30.04,East,89,0.0,4.0,71,0.00,,,0.00,Wunderground v.1.15,2013-07-02 06:07:00,
2013-07-02 01:13:00,64.6,55.0,30.04,East,89,0.0,4.0,71,0.00,,,0.00,Wunderground v.1.15,2013-07-02 06:13:00,
2013-07-02 01:19:00,64.5,54.9,30.04,East,89,0.0,4.0,71,0.00,,,0.00,Wunderground v.1.15,2013-07-02 06:19:00,
2013-07-02 01:25:00,64.5,54.9,30.04,East,89,0.0,4.0,71,0.00,,,0.00,Wunderground v.1.15,2013-07-02 06:25:00,
2013-07-02 01:31:00,64.5,54.9,30.04,East,89,0.0,4.0,71,0.00,,,0.00,Wunderground v.1.15,2013-07-02 06:31:00,
2013-07-02 01:36:00,64.4,54.8,30.04,East,89,0.0,4.0,71,0.00,,,0.00,Wunderground v.1.15,2013-07-02 06:36:00,
2013-07-02 01:42:00,64.4,54.8,30.04,East,89,0.0,4.0,71,0.00,,,0.00,Wunderground v.1.15,2013-07-02 06:42:00,
2013-07-02 01:48:00,64.4,54.8,30.04,East,89,0.0,4.0,71,0.00,,,0.00,Wunderground v.1.15,2013-07-02 06:48:00,
2013-07-02 01:54:00,64.3,54.7,30.05,East,88,0.0,4.0,71,0.00,,,0.00,Wunderground v.1.15,2013-07-02 06:54:00,
2013-07-02 01:59:00,64.3,54.7,30.05,East,88,0.0,4.0,71,0.00,,,0.00,Wunderground v.1.15,2013-07-02 06:59:00,
2013-07-02 02:04:00,64.3,54.7,30.05,East,89,0.0,4.0,71,0.00,,,0.00,Wunderground v.1.15,2013-07-02 07:04:00,
2013-07-02 02:10:00,64.4,54.8,30.04,East,89,0.0,4.0,71,0.00,,,0.00,Wunderground v.1.15,2013-07-02 07:10:00,
2013-07-02 02:15:00,64.4,54.8,30.04,East,89,0.0,4.0,71,0.00,,,0.00,Wunderground v.1.15,2013-07-02 07:15:00,
2013-07-02 02:21:00,64.3,55.1,30.04,East,88,0.0,4.0,72,0.00,,,0.00,Wunderground v.1.15,2013-07-02 07:21:00,
2013-07-02 02:27:00,64.3,54.7,30.04,East,88,0.0,4.0,71,0.00,,,0.00,Wunderground v.1.15,2013-07-02 07:27:00,
2013-07-02 02:32:00,64.2,54.6,30.04,East,88,0.0,4.0,71,0.00,,,0.00,Wunderground v.1.15,2013-07-02 07:32:00,
2013-07-02 02:38:00,64.2,54.6,30.04,East,88,0.0,4.0,71,0.00,,,0.00,Wunderground v.1.15,2013-07-02 07:38:00,
2013-07-02 02:44:00,64.2,54.6,30.04,East,89,0.0,4.0,71,0.00,,,0.00,Wunderground v.1.15,2013-07-02 07:44:00,
2013-07-02 02:50:00,64.1,54.9,30.04,East,89,0.0,4.0,72,0.00,,,0.00,Wunderground v.1.15,2013-07-02 07:50:00,
2013-07-02 02:55:00,64.0,54.8,30.04,East,89,0.0,4.0,72,0.00,,,0.00,Wunderground v.1.15,2013-07-02 07:55:00,
2013-07-02 03:01:00,63.9,54.7,30.04,East,89,0.0,4.0,72,0.00,,,0.00,Wunderground v.1.15,2013-07-02 08:01:00,
2013-07-02 03:06:00,63.8,54.6,30.04,East,89,0.0,4.0,72,0.00,,,0.00,Wunderground v.1.15,2013-07-02 08:06:00,
2013-07-02 03:12:00,63.7,54.9,30.04,East,89,0.0,4.0,73,0.00,,,0.00,Wunderground v.1.15,2013-07-02 08:12:00,
2013-07-02 03:18:00,63.4,54.6,30.04,East,89,0.0,4.0,73,0.00,,,0.00,Wunderground v.1.15,2013-07-02 08:18:00,
2013-07-02 03:23:00,63.2,54.8,30.04,East,89,0.0,4.0,74,0.00,,,0.00,Wunderground v.1.15,2013-07-02 08:23:00,
2013-07-02 03:29:00,62.8,54.4,30.04,East,89,0.0,4.0,74,0.00,,,0.00,Wunderground v.1.15,2013-07-02 08:29:00,
2013-07-02 03:35:00,62.6,54.6,30.04,East,89,0.0,4.0,75,0.00,,,0.00,Wunderground v.1.15,2013-07-02 08:35:00,
2013-07-02 03:40:00,62.3,54.6,30.04,East,89,0.0,4.0,76,0.00,,,0.00,Wunderground v.1.15,2013-07-02 08:40:00,
2013-07-02 03:46:00,62.1,54.4,30.04,East,89,0.0,4.0,76,0.00,,,0.00,Wunderground v.1.15,2013-07-02 08:46:00,
2013-07-02 03:51:00,61.9,54.6,30.04,East,89,0.0,4.0,77,0.00,,,0.00,Wunderground v.1.15,2013-07-02 08:51:00,
2013-07-02 03:57:00,61.8,54.5,30.04,East,88,0.0,4.0,77,0.00,,,0.00,Wunderground v.1.15,2013-07-02 08:57:00,
2013-07-02 04:02:00,61.7,54.8,30.04,East,89,0.0,4.0,78,0.00,,,0.00,Wunderground v.1.15,2013-07-02 09:02:00,
2013-07-02 04:08:00,61.5,54.6,30.04,East,88,0.0,4.0,78,0.00,,,0.00,Wunderground v.1.15,2013-07-02 09:08:00,
2013-07-02 04:14:00,61.4,54.8,30.04,East,89,0.0,4.0,79,0.00,,,0.00,Wunderground v.1.15,2013-07-02 09:14:00,
2013-07-02 04:19:00,61.2,55.0,30.04,East,88,0.0,4.0,80,0.00,,,0.00,Wunderground v.1.15,2013-07-02 09:19:00,
2013-07-02 04:25:00,61.0,54.8,30.04,East,88,0.0,4.0,80,0.00,,,0.00,Wunderground v.1.15,2013-07-02 09:25:00,
2013-07-02 04:31:00,60.8,54.9,30.04,East,88,0.0,4.0,81,0.00,,,0.00,Wunderground v.1.15,2013-07-02 09:31:00,
2013-07-02 04:37:00,60.7,55.2,30.04,East,88,0.0,4.0,82,0.00,,,0.00,Wunderground v.1.15,2013-07-02 09:37:00,
2013-07-02 04:42:00,60.5,55.0,30.04,East,88,0.0,4.0,82,0.00,,,0.00,Wunderground v.1.15,2013-07-02 09:42:00,
2013-07-02 04:48:00,60.4,55.2,30.04,East,88,0.0,4.0,83,0.00,,,0.00,Wunderground v.1.15,2013-07-02 09:48:00,
2013-07-02 04:54:00,60.3,55.1,30.04,East,88,0.0,4.0,83,0.00,,,0.00,Wunderground v.1.15,2013-07-02 09:54:00,
2013-07-02 05:00:00,60.2,55.0,30.04,East,88,0.0,4.0,83,0.00,,,0.00,Wunderground v.1.15,2013-07-02 10:00:00,
2013-07-02 05:05:00,60.1,55.2,30.04,East,88,0.0,4.0,84,0.00,,,0.00,Wunderground v.1.15,2013-07-02 10:05:00,
2013-07-02 05:11:00,60.0,55.2,30.04,East,88,0.0,4.0,84,0.00,,,0.00,Wunderground v.1.15,2013-07-02 10:11:00,
2013-07-02 05:17:00,59.9,55.4,30.05,East,89,0.0,4.0,85,0.00,,,0.00,Wunderground v.1.15,2013-07-02 10:17:00,
2013-07-02 05:22:00,59.8,55.3,30.05,East,89,0.0,4.0,85,0.00,,,0.00,Wunderground v.1.15,2013-07-02 10:22:00,
2013-07-02 05:28:00,59.6,55.1,30.05,East,88,0.0,4.0,85,0.00,,,0.00,Wunderground v.1.15,2013-07-02 10:28:00,
2013-07-02 05:34:00,59.5,55.3,30.05,East,88,0.0,4.0,86,0.00,,,0.00,Wunderground v.1.15,2013-07-02 10:34:00,
2013-07-02 05:40:00,59.5,55.3,30.05,East,88,0.0,4.0,86,0.00,,,0.00,Wunderground v.1.15,2013-07-02 10:40:00,
2013-07-02 05:46:00,59.5,55.3,30.05,East,88,0.0,4.0,86,0.00,,,0.00,Wunderground v.1.15,2013-07-02 10:46:00,
2013-07-02 05:52:00,59.4,55.2,30.05,East,88,0.0,4.0,86,0.00,,,0.00,Wunderground v.1.15,2013-07-02 10:52:00,
2013-07-02 05:58:00,59.4,55.5,30.05,East,88,0.0,4.0,87,0.00,,,0.00,Wunderground v.1.15,2013-07-02 10:58:00,
2013-07-02 06:03:00,59.4,55.5,30.05,East,88,0.0,4.0,87,0.00,,,0.00,Wunderground v.1.15,2013-07-02 11:03:00,
2013-07-02 06:09:00,59.3,55.4,30.05,East,89,0.0,4.0,87,0.00,,,0.00,Wunderground v.1.15,2013-07-02 11:09:00,
2013-07-02 06:15:00,59.3,55.4,30.05,East,89,0.0,4.0,87,0.00,,,0.00,Wunderground v.1.15,2013-07-02 11:15:00,
2013-07-02 06:21:00,59.3,55.1,30.05,East,89,0.0,4.0,86,0.00,,,0.00,Wunderground v.1.15,2013-07-02 11:21:00,
2013-07-02 06:27:00,59.4,55.2,30.05,East,88,0.0,4.0,86,0.00,,,0.00,Wunderground v.1.15,2013-07-02 11:27:00,
2013-07-02 06:33:00,59.4,55.2,30.06,East,88,0.0,4.0,86,0.00,,,0.00,Wunderground v.1.15,2013-07-02 11:33:00,
2013-07-02 06:38:00,59.5,55.3,30.06,East,88,0.0,4.0,86,0.00,,,0.00,Wunderground v.1.15,2013-07-02 11:38:00,
2013-07-02 06:44:00,59.6,55.4,30.06,East,88,0.0,4.0,86,0.00,,,0.00,Wunderground v.1.15,2013-07-02 11:44:00,
2013-07-02 06:50:00,59.9,55.4,30.07,East,88,0.0,4.0,85,0.00,,,0.00,Wunderground v.1.15,2013-07-02 11:50:00,
2013-07-02 06:56:00,60.1,55.2,30.07,East,89,0.0,4.0,84,0.00,,,0.00,Wunderground v.1.15,2013-07-02 11:56:00,
2013-07-02 07:01:00,60.4,55.2,30.07,East,89,0.0,4.0,83,0.00,,,0.00,Wunderground v.1.15,2013-07-02 12:01:00,
2013-07-02 07:07:00,60.7,55.5,30.07,East,89,0.0,4.0,83,0.00,,,0.00,Wunderground v.1.15,2013-07-02 12:07:00,
2013-07-02 07:13:00,60.9,55.4,30.07,East,88,0.0,4.0,82,0.00,,,0.00,Wunderground v.1.15,2013-07-02 12:13:00,
2013-07-02 07:19:00,61.3,55.4,30.07,East,89,0.0,4.0,81,0.00,,,0.00,Wunderground v.1.15,2013-07-02 12:19:00,
2013-07-02 07:24:00,61.6,55.7,30.07,East,88,0.0,4.0,81,0.00,,,0.00,Wunderground v.1.15,2013-07-02 12:24:00,
2013-07-02 07:30:00,62.0,56.1,30.07,East,88,0.0,4.0,81,0.00,,,0.00,Wunderground v.1.15,2013-07-02 12:30:00,
2013-07-02 07:36:00,62.5,56.2,30.07,East,89,0.0,4.0,80,0.00,,,0.00,Wunderground v.1.15,2013-07-02 12:36:00,
2013-07-02 07:41:00,62.9,56.3,30.07,East,89,0.0,4.0,79,0.00,,,0.00,Wunderground v.1.15,2013-07-02 12:41:00,
2013-07-02 07:47:00,63.4,56.8,30.07,East,89,0.0,4.0,79,0.00,,,0.00,Wunderground v.1.15,2013-07-02 12:47:00,
2013-07-02 07:52:00,63.9,56.9,30.07,East,89,0.0,4.0,78,0.00,,,0.00,Wunderground v.1.15,2013-07-02 12:52:00,
2013-07-02 07:58:00,64.4,57.0,30.07,East,89,0.0,4.0,77,0.00,,,0.00,Wunderground v.1.15,2013-07-02 12:58:00,
2013-07-02 08:04:00,64.9,57.2,30.07,East,89,0.0,4.0,76,0.00,,,0.00,Wunderground v.1.15,2013-07-02 13:04:00,
2013-07-02 08:10:00,65.4,57.3,30.07,East,89,0.0,4.0,75,0.00,,,0.00,Wunderground v.1.15,2013-07-02 13:10:00,
2013-07-02 08:15:00,65.8,57.7,30.06,East,89,0.0,4.0,75,0.00,,,0.00,Wunderground v.1.15,2013-07-02 13:15:00,
2013-07-02 08:21:00,66.4,57.5,30.07,East,88,0.0,4.0,73,0.00,,,0.00,Wunderground v.1.15,2013-07-02 13:21:00,
2013-07-02 08:27:00,66.9,58.0,30.07,East,88,0.0,4.0,73,0.00,,,0.00,Wunderground v.1.15,2013-07-02 13:27:00,
2013-07-02 08:33:00,67.5,57.8,30.07,East,88,0.0,4.0,71,0.00,,,0.00,Wunderground v.1.15,2013-07-02 13:33:00,
2013-07-02 08:39:00,67.9,57.8,30.07,East,88,0.0,4.0,70,0.00,,,0.00,Wunderground v.1.15,2013-07-02 13:39:00,
2013-07-02 08:45:00,68.3,58.1,30.07,East,89,0.0,4.0,70,0.00,,,0.00,Wunderground v.1.15,2013-07-02 13:45:00,
2013-07-02 08:51:00,68.8,58.6,30.06,East,89,0.0,4.0,70,0.00,,,0.00,Wunderground v.1.15,2013-07-02 13:51:00,
2013-07-02 08:57:00,69.2,59.0,30.07,East,88,0.0,4.0,70,0.00,,,0.00,Wunderground v.1.15,2013-07-02 13:57:00,
2013-07-02 09:03:00,69.6,59.0,30.06,East,88,0.0,4.0,69,0.00,,,0.00,Wunderground v.1.15,2013-07-02 14:03:00,
2013-07-02 09:08:00,70.0,58.5,30.06,East,88,0.0,4.0,67,0.00,,,0.00,Wunderground v.1.15,2013-07-02 14:08:00,
2013-07-02 09:14:00,70.5,58.2,30.06,East,88,0.0,4.0,65,0.00,,,0.00,Wunderground v.1.15,2013-07-02 14:14:00,
2013-07-02 09:20:00,70.9,57.7,30.06,WNW,298,0.0,4.0,63,0.00,,,0.00,Wunderground v.1.15,2013-07-02 14:20:00,
2013-07-02 09:26:00,71.3,58.1,30.06,WNW,298,0.0,4.0,63,0.00,,,0.00,Wunderground v.1.15,2013-07-02 14:26:00,
2013-07-02 09:32:00,71.8,58.5,30.06,WNW,298,0.0,4.0,63,0.00,,,0.00,Wunderground v.1.15,2013-07-02 14:32:00,
2013-07-02 09:38:00,72.3,58.5,30.06,WNW,298,0.0,4.0,62,0.00,,,0.00,Wunderground v.1.15,2013-07-02 14:38:00,
2013-07-02 09:43:00,72.7,58.5,30.05,WNW,298,0.0,4.0,61,0.00,,,0.00,Wunderground v.1.15,2013-07-02 14:43:00,
2013-07-02 09:48:00,73.0,58.8,30.05,WNW,298,0.0,4.0,61,0.00,,,0.00,Wunderground v.1.15,2013-07-02 14:48:00,
2013-07-02 09:54:00,73.4,58.7,30.05,WNW,298,0.0,4.0,60,0.00,,,0.00,Wunderground v.1.15,2013-07-02 14:54:00,
2013-07-02 09:59:00,73.8,58.6,30.05,West,279,0.0,4.0,59,0.00,,,0.00,Wunderground v.1.15,2013-07-02 14:59:00,
2013-07-02 10:05:00,74.3,58.6,30.05,West,279,0.0,4.0,58,0.00,,,0.00,Wunderground v.1.15,2013-07-02 15:05:00,
2013-07-02 10:10:00,74.6,58.4,30.05,West,279,1.0,4.0,57,0.00,,,0.00,Wunderground v.1.15,2013-07-02 15:10:00,
2013-07-02 10:16:00,74.9,58.1,30.05,West,279,1.0,4.0,56,0.00,,,0.00,Wunderground v.1.15,2013-07-02 15:16:00,
2013-07-02 10:21:00,75.2,59.4,30.05,West,279,1.0,4.0,58,0.00,,,0.00,Wunderground v.1.15,2013-07-02 15:21:00,
2013-07-02 10:27:00,75.7,59.9,30.05,NNW,331,0.0,4.0,58,0.00,,,0.00,Wunderground v.1.15,2013-07-02 15:27:00,
2013-07-02 10:32:00,76.0,60.2,30.05,NW,313,1.0,4.0,58,0.00,,,0.00,Wunderground v.1.15,2013-07-02 15:32:00,
2013-07-02 10:37:00,76.4,59.0,30.05,West,279,1.0,4.0,55,0.00,,,0.00,Wunderground v.1.15,2013-07-02 15:37:00,
2013-07-02 10:43:00,77.0,59.6,30.05,NW,321,1.0,4.0,55,0.00,,,0.00,Wunderground v.1.15,2013-07-02 15:43:00,
2013-07-02 10:49:00,77.6,58.6,30.04,WNW,298,1.0,4.0,52,0.00,,,0.00,Wunderground v.1.15,2013-07-02 15:49:00,
2013-07-02 10:54:00,77.9,59.4,30.04,WNW,298,1.0,4.0,53,0.00,,,0.00,Wunderground v.1.15,2013-07-02 15:54:00,
2013-07-02 11:00:00,78.5,59.4,30.05,NW,319,1.0,1.0,52,0.00,,,0.00,Wunderground v.1.15,2013-07-02 16:00:00,
2013-07-02 11:06:00,78.8,59.1,30.05,NW,319,1.0,4.0,51,0.00,,,0.00,Wunderground v.1.15,2013-07-02 16:06:00,
2013-07-02 11:11:00,79.2,60.1,30.04,NNW,338,0.0,4.0,52,0.00,,,0.00,Wunderground v.1.15,2013-07-02 16:11:00,
2013-07-02 11:17:00,80.0,59.1,30.04,NW,326,1.0,4.0,49,0.00,,,0.00,Wunderground v.1.15,2013-07-02 16:17:00,
2013-07-02 11:23:00,80.2,59.3,30.04,WNW,292,1.0,4.0,49,0.00,,,0.00,Wunderground v.1.15,2013-07-02 16:23:00,
2013-07-02 11:29:00,80.4,60.1,30.04,North,355,1.0,4.0,50,0.00,,,0.00,Wunderground v.1.15,2013-07-02 16:29:00,
2013-07-02 11:34:00,80.7,59.2,30.04,WNW,302,1.0,4.0,48,0.00,,,0.00,Wunderground v.1.15,2013-07-02 16:34:00,
2013-07-02 11:39:00,80.8,59.3,30.03,WNW,299,1.0,4.0,48,0.00,,,0.00,Wunderground v.1.15,2013-07-02 16:39:00,
2013-07-02 11:44:00,80.9,60.5,30.03,WNW,297,1.0,4.0,50,0.00,,,0.00,Wunderground v.1.15,2013-07-02 16:44:00,
2013-07-02 11:49:00,81.2,61.4,30.03,WNW,286,1.0,4.0,51,0.00,,,0.00,Wunderground v.1.15,2013-07-02 16:49:00,
2013-07-02 11:54:00,81.8,62.5,30.03,WNW,284,1.0,4.0,52,0.00,,,0.00,Wunderground v.1.15,2013-07-02 16:54:00,
2013-07-02 12:00:00,82.3,60.6,30.03,WNW,284,0.0,4.0,48,0.00,,,0.00,Wunderground v.1.15,2013-07-02 17:00:00,
2013-07-02 12:06:00,82.0,59.8,30.03,West,277,1.0,4.0,47,0.00,,,0.00,Wunderground v.1.15,2013-07-02 17:06:00,
2013-07-02 12:12:00,81.8,59.6,30.03,WNW,300,1.0,4.0,47,0.00,,,0.00,Wunderground v.1.15,2013-07-02 17:12:00,
2013-07-02 12:18:00,81.9,60.3,30.02,West,276,1.0,4.0,48,0.00,,,0.00,Wunderground v.1.15,2013-07-02 17:18:00,
2013-07-02 12:23:00,81.8,59.6,30.02,WNW,286,1.0,4.0,47,0.00,,,0.00,Wunderground v.1.15,2013-07-02 17:23:00,
2013-07-02 12:28:00,81.9,60.9,30.02,SW,215,1.0,4.0,49,0.00,,,0.00,Wunderground v.1.15,2013-07-02 17:28:00,
2013-07-02 12:33:00,82.5,60.8,30.02,SW,215,1.0,4.0,48,0.00,,,0.00,Wunderground v.1.15,2013-07-02 17:33:00,
2013-07-02 12:38:00,82.9,60.6,30.02,SW,215,1.0,4.0,47,0.00,,,0.00,Wunderground v.1.15,2013-07-02 17:38:00,
2013-07-02 12:44:00,82.4,59.5,30.02,West,281,1.0,4.0,46,0.00,,,0.00,Wunderground v.1.15,2013-07-02 17:44:00,
2013-07-02 12:49:00,82.0,61.0,30.02,West,281,1.0,4.0,49,0.00,,,0.00,Wunderground v.1.15,2013-07-02 17:49:00,
2013-07-02 12:54:00,82.3,60.1,30.02,North,355,1.0,4.0,47,0.00,,,0.00,Wunderground v.1.15,2013-07-02 17:54:00,
2013-07-02 12:59:00,82.6,60.9,30.02,ENE,67,1.0,4.0,48,0.00,,,0.00,Wunderground v.1.15,2013-07-02 17:59:00,
2013-07-02 13:04:00,83.0,59.5,30.01,NW,305,1.0,4.0,45,0.00,,,0.00,Wunderground v.1.15,2013-07-02 18:04:00,
2013-07-02 13:10:00,83.2,59.0,30.01,NW,306,0.0,4.0,44,0.00,,,0.00,Wunderground v.1.15,2013-07-02 18:10:00,
2013-07-02 13:16:00,82.8,59.9,30.01,NW,315,1.0,4.0,46,0.00,,,0.00,Wunderground v.1.15,2013-07-02 18:16:00,
2013-07-02 13:22:00,82.7,59.8,30.01,NNW,333,0.0,4.0,46,0.00,,,0.00,Wunderground v.1.15,2013-07-02 18:22:00,
2013-07-02 13:28:00,82.8,59.3,30.00,NW,309,0.0,4.0,45,0.00,,,0.00,Wunderground v.1.15,2013-07-02 18:28:00,
2013-07-02 13:34:00,82.9,59.4,30.00,NW,309,0.0,4.0,45,0.00,,,0.00,Wunderground v.1.15,2013-07-02 18:34:00,
2013-07-02 13:40:00,82.6,59.1,30.00,NNE,15,1.0,1.0,45,0.00,,,0.00,Wunderground v.1.15,2013-07-02 18:40:00,
2013-07-02 13:45:00,82.2,58.7,30.00,WNW,292,1.0,4.0,45,0.00,,,0.00,Wunderground v.1.15,2013-07-02 18:45:00,
2013-07-02 13:50:00,82.1,59.9,30.00,WNW,292,1.0,4.0,47,0.00,,,0.00,Wunderground v.1.15,2013-07-02 18:50:00,
2013-07-02 13:56:00,82.6,59.7,30.00,NNW,334,0.0,4.0,46,0.00,,,0.00,Wunderground v.1.15,2013-07-02 18:56:00,
2013-07-02 14:01:00,82.8,58.7,30.00,WNW,299,1.0,4.0,44,0.00,,,0.00,Wunderground v.1.15,2013-07-02 19:01:00,
2013-07-02 14:06:00,82.6,59.1,29.99,WNW,296,1.0,4.0,45,0.00,,,0.00,Wunderground v.1.15,2013-07-02 19:06:00,
2013-07-02 14:12:00,82.7,59.8,29.99,WNW,296,1.0,4.0,46,0.00,,,0.00,Wunderground v.1.15,2013-07-02 19:12:00,
2013-07-02 14:17:00,82.8,59.3,29.99,WNW,296,0.0,4.0,45,0.00,,,0.00,Wunderground v.1.15,2013-07-02 19:17:00,
2013-07-02 14:23:00,82.6,58.5,29.98,WNW,285,1.0,4.0,44,0.00,,,0.00,Wunderground v.1.15,2013-07-02 19:23:00,
2013-07-02 14:29:00,82.4,57.7,29.98,WNW,286,1.0,4.0,43,0.00,,,0.00,Wunderground v.1.15,2013-07-02 19:29:00,
2013-07-02 14:35:00,82.4,58.3,29.98,North,355,1.0,4.0,44,0.00,,,0.00,Wunderground v.1.15,2013-07-02 19:35:00,
2013-07-02 14:41:00,82.5,58.4,29.98,North,355,1.0,4.0,44,0.00,,,0.00,Wunderground v.1.15,2013-07-02 19:41:00,
2013-07-02 14:47:00,82.5,57.7,29.98,North,5,1.0,4.0,43,0.00,,,0.00,Wunderground v.1.15,2013-07-02 19:47:00,
2013-07-02 14:53:00,82.6,56.5,29.98,WNW,288,1.0,4.0,41,0.00,,,0.00,Wunderground v.1.15,2013-07-02 19:53:00,
2013-07-02 14:59:00,82.7,58.6,29.98,NNW,342,1.0,4.0,44,0.00,,,0.00,Wunderground v.1.15,2013-07-02 19:59:00,
2013-07-02 15:04:00,82.5,57.7,29.98,WNW,292,1.0,4.0,43,0.00,,,0.00,Wunderground v.1.15,2013-07-02 20:04:00,
2013-07-02 15:10:00,82.5,58.4,29.97,WNW,291,1.0,4.0,44,0.00,,,0.00,Wunderground v.1.15,2013-07-02 20:10:00,
2013-07-02 15:16:00,82.5,58.4,29.97,WNW,290,1.0,4.0,44,0.00,,,0.00,Wunderground v.1.15,2013-07-02 20:16:00,
2013-07-02 15:22:00,82.7,58.6,29.97,WNW,300,0.0,4.0,44,0.00,,,0.00,Wunderground v.1.15,2013-07-02 20:22:00,
2013-07-02 15:27:00,82.7,59.2,29.97,WNW,300,0.0,4.0,45,0.00,,,0.00,Wunderground v.1.15,2013-07-02 20:27:00,
2013-07-02 15:33:00,82.9,59.4,29.97,WNW,290,1.0,4.0,45,0.00,,,0.00,Wunderground v.1.15,2013-07-02 20:33:00,
2013-07-02 15:39:00,82.7,58.6,29.97,West,279,1.0,4.0,44,0.00,,,0.00,Wunderground v.1.15,2013-07-02 20:39:00,
2013-07-02 15:45:00,82.3,58.2,29.97,West,279,1.0,4.0,44,0.00,,,0.00,Wunderground v.1.15,2013-07-02 20:45:00,
2013-07-02 15:51:00,82.2,59.4,29.97,NNW,346,0.0,2.0,46,0.00,,,0.00,Wunderground v.1.15,2013-07-02 20:51:00,
2013-07-02 15:56:00,82.1,58.7,29.97,NNW,346,0.0,4.0,45,0.00,,,0.00,Wunderground v.1.15,2013-07-02 20:56:00,
2013-07-02 16:01:00,81.8,57.8,29.97,North,355,1.0,4.0,44,0.00,,,0.00,Wunderground v.1.15,2013-07-02 21:01:00,
2013-07-02 16:07:00,81.2,57.2,29.97,NNW,328,1.0,4.0,44,0.00,,,0.00,Wunderground v.1.15,2013-07-02 21:07:00,
2013-07-02 16:13:00,80.3,58.8,29.97,NNE,28,1.0,4.0,48,0.00,,,0.00,Wunderground v.1.15,2013-07-02 21:13:00,
2013-07-02 16:19:00,79.5,58.1,29.97,NNE,28,0.0,4.0,48,0.00,,,0.00,Wunderground v.1.15,2013-07-02 21:19:00,
2013-07-02 16:24:00,78.9,58.7,29.97,NNE,28,0.0,4.0,50,0.00,,,0.00,Wunderground v.1.15,2013-07-02 21:24:00,
2013-07-02 16:30:00,78.3,58.1,29.97,NNE,28,0.0,4.0,50,0.00,,,0.00,Wunderground v.1.15,2013-07-02 21:30:00,
2013-07-02 16:36:00,77.9,58.9,29.96,NNE,28,0.0,4.0,52,0.00,,,0.00,Wunderground v.1.15,2013-07-02 21:36:00,
2013-07-02 16:42:00,77.5,59.0,29.96,NNE,28,0.0,4.0,53,0.00,,,0.00,Wunderground v.1.15,2013-07-02 21:42:00,
2013-07-02 16:48:00,77.2,60.3,29.97,NNE,28,0.0,4.0,56,0.00,,,0.00,Wunderground v.1.15,2013-07-02 21:48:00,
2013-07-02 16:54:00,76.9,59.5,29.97,NNE,28,0.0,4.0,55,0.00,,,0.00,Wunderground v.1.15,2013-07-02 21:54:00,
2013-07-02 17:00:00,76.8,61.4,29.97,NNE,28,0.0,4.0,59,0.00,,,0.00,Wunderground v.1.15,2013-07-02 22:00:00,
2013-07-02 17:06:00,76.7,60.8,29.97,NNE,28,0.0,4.0,58,0.00,,,0.00,Wunderground v.1.15,2013-07-02 22:06:00,
2013-07-02 17:12:00,76.7,60.3,29.97,NNE,28,0.0,4.0,57,0.00,,,0.00,Wunderground v.1.15,2013-07-02 22:12:00,
2013-07-02 17:18:00,76.7,59.8,29.97,NNE,28,0.0,4.0,56,0.00,,,0.00,Wunderground v.1.15,2013-07-02 22:18:00,
2013-07-02 17:24:00,76.7,61.3,29.96,NNE,28,0.0,4.0,59,0.00,,,0.00,Wunderground v.1.15,2013-07-02 22:24:00,
2013-07-02 17:30:00,76.7,61.3,29.96,NNE,28,0.0,4.0,59,0.00,,,0.00,Wunderground v.1.15,2013-07-02 22:30:00,
2013-07-02 17:36:00,76.7,60.8,29.96,NNE,28,0.0,4.0,58,0.00,,,0.00,Wunderground v.1.15,2013-07-02 22:36:00,
2013-07-02 17:42:00,76.7,61.3,29.96,NE,36,0.0,4.0,59,0.00,,,0.00,Wunderground v.1.15,2013-07-02 22:42:00,
2013-07-02 17:48:00,76.7,62.2,29.96,NE,36,0.0,4.0,61,0.00,,,0.00,Wunderground v.1.15,2013-07-02 22:48:00,
2013-07-02 17:54:00,76.7,62.7,29.97,NE,36,0.0,4.0,62,0.00,,,0.00,Wunderground v.1.15,2013-07-02 22:54:00,
2013-07-02 18:00:00,76.8,62.8,29.97,NE,36,0.0,4.0,62,0.00,,,0.00,Wunderground v.1.15,2013-07-02 23:00:00,
2013-07-02 18:06:00,77.0,61.6,29.96,NE,36,0.0,4.0,59,0.00,,,0.00,Wunderground v.1.15,2013-07-02 23:06:00,
2013-07-02 18:12:00,77.2,62.7,29.97,ESE,103,1.0,4.0,61,0.00,,,0.00,Wunderground v.1.15,2013-07-02 23:12:00,
2013-07-02 18:17:00,77.0,62.5,29.97,SE,130,2.0,4.0,61,0.00,,,0.00,Wunderground v.1.15,2013-07-02 23:17:00,
2013-07-02 18:23:00,76.8,61.9,29.97,SE,129,1.0,4.0,60,0.00,,,0.00,Wunderground v.1.15,2013-07-02 23:23:00,
2013-07-02 18:29:00,76.8,62.3,29.97,SE,127,1.0,4.0,61,0.00,,,0.00,Wunderground v.1.15,2013-07-02 23:29:00,
2013-07-02 18:34:00,77.0,62.0,29.96,SE,126,0.0,4.0,60,0.00,,,0.00,Wunderground v.1.15,2013-07-02 23:34:00,
2013-07-02 18:40:00,76.9,62.4,29.96,SE,126,0.0,4.0,61,0.00,,,0.00,Wunderground v.1.15,2013-07-02 23:40:00,
2013-07-02 18:44:00,76.8,62.3,29.96,SE,126,0.0,4.0,61,0.00,,,0.00,Wunderground v.1.15,2013-07-02 23:44:00,
2013-07-02 18:50:00,76.5,63.0,29.96,SE,126,0.0,4.0,63,0.00,,,0.00,Wunderground v.1.15,2013-07-02 23:50:00,
2013-07-02 18:55:00,76.1,63.0,29.96,SE,126,0.0,4.0,64,0.00,,,0.00,Wunderground v.1.15,2013-07-02 23:55:00,
2013-07-02 18:57:00,76.0,63.4,29.95,SE,126,0.0,4.0,65,0.00,,,0.00,Wunderground v.1.15,2013-07-02 23:57:00,
2013-07-02 19:01:00,75.8,63.6,29.95,SE,127,0.0,4.0,66,0.00,,,0.00,Wunderground v.1.15,2013-07-03 00:01:00,
2013-07-02 19:07:00,75.5,63.8,29.95,SE,127,0.0,4.0,67,0.00,,,0.00,Wunderground v.1.15,2013-07-03 00:07:00,
2013-07-02 19:08:00,75.4,63.7,29.95,SE,126,0.0,4.0,67,0.00,,,0.00,Wunderground v.1.15,2013-07-03 00:08:00,
2013-07-02 19:14:00,75.1,63.8,29.95,SE,126,0.0,4.0,68,0.00,,,0.00,Wunderground v.1.15,2013-07-03 00:14:00,
2013-07-02 19:20:00,74.9,63.6,29.95,SE,130,0.0,4.0,68,0.00,,,0.00,Wunderground v.1.15,2013-07-03 00:20:00,
2013-07-02 19:26:00,74.5,63.2,29.96,SE,130,0.0,4.0,68,0.00,,,0.00,Wunderground v.1.15,2013-07-03 00:26:00,
2013-07-02 19:28:00,74.4,63.6,29.96,SE,130,0.0,4.0,69,0.00,,,0.00,Wunderground v.1.15,2013-07-03 00:28:00,
2013-07-02 19:34:00,74.0,63.2,29.96,SE,130,0.0,4.0,69,0.00,,,0.00,Wunderground v.1.15,2013-07-03 00:34:00,
2013-07-02 19:40:00,73.7,62.9,29.96,SE,130,0.0,4.0,69,0.00,,,0.00,Wunderground v.1.15,2013-07-03 00:40:00,
2013-07-02 19:46:00,73.5,61.9,29.96,SE,130,0.0,4.0,67,0.00,,,0.00,Wunderground v.1.15,2013-07-03 00:46:00,
2013-07-02 19:51:00,73.3,61.7,29.96,SE,130,0.0,4.0,67,0.00,,,0.00,Wunderground v.1.15,2013-07-03 00:51:00,
2013-07-02 19:57:00,73.1,61.9,29.96,SE,130,0.0,4.0,68,0.00,,,0.00,Wunderground v.1.15,2013-07-03 00:57:00,
2013-07-02 20:01:00,73.1,61.9,29.96,SE,130,0.0,4.0,68,0.00,,,0.00,Wunderground v.1.15,2013-07-03 01:01:00,
2013-07-02 20:06:00,73.0,61.8,29.96,SE,130,0.0,4.0,68,0.00,,,0.00,Wunderground v.1.15,2013-07-03 01:06:00,
2013-07-02 20:12:00,73.0,61.8,29.95,SE,130,0.0,4.0,68,0.00,,,0.00,Wunderground v.1.15,2013-07-03 01:12:00,
2013-07-02 20:15:00,73.0,61.8,29.96,SE,130,0.0,4.0,68,0.00,,,0.00,Wunderground v.1.15,2013-07-03 01:15:00,
2013-07-02 20:21:00,72.9,61.7,29.96,SE,130,0.0,4.0,68,0.00,,,0.00,Wunderground v.1.15,2013-07-03 01:21:00,
2013-07-02 20:26:00,72.8,62.0,29.96,SE,130,0.0,4.0,69,0.00,,,0.00,Wunderground v.1.15,2013-07-03 01:26:00,
2013-07-02 20:28:00,72.8,62.0,29.96,SE,130,0.0,4.0,69,0.00,,,0.00,Wunderground v.1.15,2013-07-03 01:28:00,
2013-07-02 20:33:00,72.6,61.8,29.96,SE,130,0.0,4.0,69,0.00,,,0.00,Wunderground v.1.15,2013-07-03 01:33:00,
2013-07-02 20:39:00,72.4,62.1,29.96,SE,130,0.0,4.0,70,0.00,,,0.00,Wunderground v.1.15,2013-07-03 01:39:00,
2013-07-02 20:45:00,72.1,61.8,29.96,SE,130,0.0,4.0,70,0.00,,,0.00,Wunderground v.1.15,2013-07-03 01:45:00,
2013-07-02 20:49:00,71.8,61.5,29.95,SE,130,0.0,4.0,70,0.00,,,0.00,Wunderground v.1.15,2013-07-03 01:49:00,
2013-07-02 20:55:00,71.5,61.6,29.96,SE,128,0.0,4.0,71,0.00,,,0.00,Wunderground v.1.15,2013-07-03 01:55:00,
2013-07-02 20:58:00,71.4,61.9,29.95,SE,128,0.0,4.0,72,0.00,,,0.00,Wunderground v.1.15,2013-07-03 01:58:00,
2013-07-02 21:03:00,71.2,61.7,29.95,SE,128,0.0,4.0,72,0.00,,,0.00,Wunderground v.1.15,2013-07-03 02:03:00,
2013-07-02 21:09:00,70.8,61.7,29.95,SE,128,0.0,4.0,73,0.00,,,0.00,Wunderground v.1.15,2013-07-03 02:09:00,
2013-07-02 21:15:00,70.5,61.8,29.95,SE,128,0.0,4.0,74,0.00,,,0.00,Wunderground v.1.15,2013-07-03 02:15:00,
2013-07-02 21:20:00,70.3,61.6,29.95,SE,128,0.0,4.0,74,0.00,,,0.00,Wunderground v.1.15,2013-07-03 02:20:00,
2013-07-02 21:26:00,69.9,61.6,29.95,SE,128,0.0,4.0,75,0.00,,,0.00,Wunderground v.1.15,2013-07-03 02:26:00,
2013-07-02 21:33:00,69.5,61.6,29.95,SE,128,0.0,4.0,76,0.00,,,0.00,Wunderground v.1.15,2013-07-03 02:33:00,
2013-07-02 21:39:00,69.3,61.8,29.96,SE,128,0.0,4.0,77,0.00,,,0.00,Wunderground v.1.15,2013-07-03 02:39:00,
2013-07-02 21:45:00,69.0,61.9,29.96,SE,128,0.0,4.0,78,0.00,,,0.00,Wunderground v.1.15,2013-07-03 02:45:00,
2013-07-02 21:47:00,68.9,61.8,29.96,SE,128,0.0,4.0,78,0.00,,,0.00,Wunderground v.1.15,2013-07-03 02:47:00,
2013-07-02 21:52:00,68.7,61.9,29.96,SE,128,0.0,4.0,79,0.00,,,0.00,Wunderground v.1.15,2013-07-03 02:52:00,
2013-07-02 21:58:00,68.5,61.7,29.96,SE,128,0.0,4.0,79,0.00,,,0.00,Wunderground v.1.15,2013-07-03 02:58:00,
2013-07-02 22:04:00,68.3,61.9,29.96,SE,128,0.0,4.0,80,0.00,,,0.00,Wunderground v.1.15,2013-07-03 03:04:00,
2013-07-02 22:10:00,68.1,62.0,29.96,SE,128,0.0,4.0,81,0.00,,,0.00,Wunderground v.1.15,2013-07-03 03:10:00,
2013-07-02 22:15:00,67.9,61.9,29.96,SE,128,0.0,4.0,81,0.00,,,0.00,Wunderground v.1.15,2013-07-03 03:15:00,
2013-07-02 22:20:00,67.7,61.7,29.96,SE,128,0.0,4.0,81,0.00,,,0.00,Wunderground v.1.15,2013-07-03 03:20:00,
2013-07-02 22:25:00,67.6,61.9,29.96,SE,128,0.0,4.0,82,0.00,,,0.00,Wunderground v.1.15,2013-07-03 03:25:00,
2013-07-02 22:31:00,67.4,61.7,29.97,SE,128,0.0,4.0,82,0.00,,,0.00,Wunderground v.1.15,2013-07-03 03:31:00,
2013-07-02 22:36:00,67.2,61.9,29.97,SE,128,0.0,4.0,83,0.00,,,0.00,Wunderground v.1.15,2013-07-03 03:36:00,
2013-07-02 22:38:00,67.2,61.9,29.96,SE,128,0.0,4.0,83,0.00,,,0.00,Wunderground v.1.15,2013-07-03 03:38:00,
2013-07-02 22:40:00,67.1,61.8,29.96,SE,128,0.0,4.0,83,0.00,,,0.00,Wunderground v.1.15,2013-07-03 03:40:00,
2013-07-02 22:46:00,66.8,61.5,29.96,SE,128,0.0,4.0,83,0.00,,,0.00,Wunderground v.1.15,2013-07-03 03:46:00,
2013-07-02 22:49:00,66.8,61.8,29.96,SE,128,0.0,4.0,84,0.00,,,0.00,Wunderground v.1.15,2013-07-03 03:49:00,
2013-07-02 22:56:00,66.5,61.5,29.96,SE,128,0.0,4.0,84,0.00,,,0.00,Wunderground v.1.15,2013-07-03 03:56:00,
2013-07-02 23:01:00,66.3,61.7,29.96,SE,128,0.0,4.0,85,0.00,,,0.00,Wunderground v.1.15,2013-07-03 04:01:00,
2013-07-02 23:03:00,66.3,61.7,29.96,SE,128,0.0,4.0,85,0.00,,,0.00,Wunderground v.1.15,2013-07-03 04:03:00,
2013-07-02 23:04:00,66.3,61.7,29.96,SE,128,0.0,4.0,85,0.00,,,0.00,Wunderground v.1.15,2013-07-03 04:04:00,
2013-07-02 23:06:00,66.2,61.6,29.96,SE,128,0.0,4.0,85,0.00,,,0.00,Wunderground v.1.15,2013-07-03 04:06:00,
2013-07-02 23:08:00,66.1,61.8,29.96,SE,128,0.0,4.0,86,0.00,,,0.00,Wunderground v.1.15,2013-07-03 04:08:00,
2013-07-02 23:13:00,66.0,61.7,29.96,SE,128,0.0,4.0,86,0.00,,,0.00,Wunderground v.1.15,2013-07-03 04:13:00,
2013-07-02 23:14:00,66.0,61.7,29.96,SE,128,0.0,4.0,86,0.00,,,0.00,Wunderground v.1.15,2013-07-03 04:14:00,
2013-07-02 23:20:00,65.8,61.5,29.96,SE,128,0.0,4.0,86,0.00,,,0.00,Wunderground v.1.15,2013-07-03 04:20:00,
2013-07-02 23:26:00,65.7,61.4,29.96,SE,128,0.0,4.0,86,0.00,,,0.00,Wunderground v.1.15,2013-07-03 04:26:00,
2013-07-02 23:32:00,65.6,61.6,29.96,SE,128,0.0,4.0,87,0.00,,,0.00,Wunderground v.1.15,2013-07-03 04:32:00,
2013-07-02 23:33:00,65.6,61.6,29.96,SE,128,0.0,4.0,87,0.00,,,0.00,Wunderground v.1.15,2013-07-03 04:33:00,
2013-07-02 23:39:00,65.4,61.4,29.96,SE,128,0.0,4.0,87,0.00,,,0.00,Wunderground v.1.15,2013-07-03 04:39:00,
2013-07-02 23:45:00,65.3,61.3,29.96,SE,128,0.0,4.0,87,0.00,,,0.00,Wunderground v.1.15,2013-07-03 04:45:00,
2013-07-02 23:49:00,65.2,61.2,29.96,SE,128,0.0,4.0,87,0.00,,,0.00,Wunderground v.1.15,2013-07-03 04:49:00,
2013-07-02 23:50:00,65.2,61.2,29.96,SE,128,0.0,4.0,87,0.00,,,0.00,Wunderground v.1.15,2013-07-03 04:50:00,
2013-07-02 23:56:00,65.0,61.0,29.96,SE,128,0.0,4.0,87,0.00,,,0.00,Wunderground v.1.15,2013-07-03 04:56:00,
2013-07-02 23:57:00,65.0,61.0,29.96,SE,128,0.0,4.0,87,0.00,,,0.00,Wunderground v.1.15,2013-07-03 04:57:00,